Location: Buchloe
(48.0161°N, 10.7316°E)
Time: 13:47:14
(UTC+02:00)

ISS - Pass Details

Date: 17 May 2018
Orbit: 402 x 407 km, 51.6° (Epoch: 26 May)

Event Time Altitude Azimuth Distance (km) Brightness Sun altitude
Rises 04:11:55 0° 289° (WNW) 2,318 -0.2 -11.8°
Reaches altitude 10° 04:14:02 10° 295° (WNW) 1,457 -1.2 -11.5°
Maximum altitude 04:17:14 52° 13° (NNE) 505 -3.0 -11.2°
Drops below altitude 10° 04:20:27 10° 92° (E) 1,455 -0.4 -10.8°
Sets 04:22:33 0° 97° (E) 2,314 0.6 -10.5°
